| time (UTC) | temp F | wind direction | speed knots | gust knots | rain 1hr in | rain 24hr in | rain mn in | humidity % | barometer mb |
| 20260902165841 | 74 | 254 | 1.7 | 4.3 | 0.00 | 0.00 | 0.00 | 57 | 1016.8 |
| 20260902165321 | 74 | 267 | 1.7 | 2.6 | 0.00 | 0.00 | 0.00 | 57 | 1016.7 |
| 20260902164800 | 74 | 243 | 2.6 | 5.2 | 0.00 | 0.00 | 0.00 | 58 | 1016.6 |
| 20260902164240 | 75 | 253 | 1.7 | 4.3 | 0.00 | 0.00 | 0.00 | 55 | 1016.7 |
| 20260902163720 | 76 | 140 | 1.7 | 3.5 | 0.00 | 0.00 | 0.00 | 55 | 1016.7 |
| 20260902163200 | 75 | 183 | 0.9 | 3.5 | 0.00 | 0.00 | 0.00 | 53 | 1016.8 |
| 20260902162640 | 74 | 245 | 0.9 | 2.6 | 0.00 | 0.00 | 0.00 | 55 | 1016.8 |
| 20260902162120 | 75 | 223 | 0.9 | 2.6 | 0.00 | 0.00 | 0.00 | 53 | 1016.8 |
| 20260902161600 | 75 | 281 | 0.9 | 3.5 | 0.00 | 0.00 | 0.00 | 50 | 1016.8 |
| 20260902161040 | 75 | 111 | 0.0 | 2.6 | 0.00 | 0.00 | 0.00 | 50 | 1016.8 |
| 20260902160520 | 74 | 208 | 0.9 | 2.6 | 0.00 | 0.00 | 0.00 | 50 | 1016.8 |
| 20260902160000 | 74 | 25 | 0.9 | 2.6 | 0.00 | 0.00 | 0.00 | 55 | 1016.8 |
| 20260902155440 | 74 | 125 | 0.9 | 2.6 | 0.00 | 0.00 | 0.00 | 59 | 1016.8 |
| 20260902154920 | 74 | 129 | 0.9 | 2.6 | 0.00 | 0.00 | 0.00 | 54 | 1016.7 |
| 20260902154400 | 74 | 134 | 0.0 | 0.9 | 0.00 | 0.00 | 0.00 | 56 | 1016.7 |
| 20260902153840 | 75 | 135 | 0.0 | 2.6 | 0.00 | 0.00 | 0.00 | 51 | 1016.7 |
| 20260902153320 | 75 | 0.0 | 0.0 | 0.00 | 0.00 | 0.00 | 49 | 1016.7 | |
| 20260902152800 | 74 | 0.0 | 0.9 | 0.00 | 0.00 | 0.00 | 54 | 1016.7 | |
| 20260902152250 | 73 | 0.0 | 0.9 | 0.00 | 0.00 | 0.00 | 58 | 1016.7 | |
| 20260902151720 | 73 | 56 | 0.0 | 2.6 | 0.00 | 0.00 | 0.00 | 56 | 1016.7 |
| 20260902151200 | 73 | 57 | 0.0 | 0.9 | 0.00 | 0.00 | 0.00 | 52 | 1016.7 |
| 20260902150640 | 72 | 56 | 0.0 | 0.9 | 0.00 | 0.00 | 0.00 | 54 | 1016.7 |
| 20260902150120 | 73 | 0.0 | 0.9 | 0.00 | 0.00 | 0.00 | 52 | 1016.7 | |
| 20260902145600 | 72 | 0.0 | 0.0 | 0.00 | 0.00 | 0.00 | 55 | 1016.7 | |
| 20260902145040 | 71 | 0.0 | 0.0 | 0.00 | 0.00 | 0.00 | 59 | 1016.7 | |
| 20260902144520 | 69 | 57 | 0.0 | 2.6 | 0.00 | 0.00 | 0.00 | 67 | 1016.7 |
| 20260902144000 | 68 | 57 | 0.9 | 2.6 | 0.00 | 0.00 | 0.00 | 68 | 1016.6 |
| 20260902143440 | 67 | 57 | 0.0 | 3.5 | 0.00 | 0.00 | 0.00 | 69 | 1016.6 |
| 20260902142920 | 66 | 56 | 0.9 | 0.9 | 0.00 | 0.00 | 0.00 | 70 | 1016.6 |
| 20260902142400 | 66 | 57 | 0.9 | 0.9 | 0.00 | 0.00 | 0.00 | 66 | 1016.5 |
| 20260902141840 | 66 | 0.0 | 0.0 | 0.00 | 0.00 | 0.00 | 61 | 1016.4 | |
| 20260902141320 | 66 | 0.0 | 0.9 | 0.00 | 0.00 | 0.00 | 63 | 1016.3 | |
| 20260902140800 | 65 | 0.0 | 0.0 | 0.00 | 0.00 | 0.00 | 69 | 1016.2 | |
| 20260902140244 | 64 | 0.0 | 0.0 | 0.00 | 0.00 | 0.00 | 77 | 1016.1 | |
| 20260902135720 | 63 | 0.0 | 1.7 | 0.00 | 0.00 | 0.00 | 83 | 1016.0 | |
| 20260902135200 | 63 | 0.0 | 1.7 | 0.00 | 0.00 | 0.00 | 85 | 1016.0 | |
| 20260902134640 | 63 | 0.0 | 0.0 | 0.00 | 0.00 | 0.00 | 85 | 1016.0 | |
| 20260902134120 | 63 | 0.0 | 1.7 | 0.00 | 0.00 | 0.00 | 84 | 1016.0 | |
| 20260902133600 | 64 | 0.0 | 1.7 | 0.00 | 0.00 | 0.00 | 83 | 1015.9 | |
| 20260902133040 | 64 | 56 | 0.9 | 6.1 | 0.00 | 0.00 | 0.00 | 83 | 1015.9 |
| 20260902132520 | 64 | 57 | 0.9 | 1.7 | 0.00 | 0.00 | 0.00 | 83 | 1015.9 |
| 20260902132000 | 64 | 57 | 0.9 | 1.7 | 0.00 | 0.00 | 0.00 | 83 | 1015.8 |
| 20260902131440 | 64 | 57 | 0.9 | 2.6 | 0.00 | 0.00 | 0.00 | 83 | 1015.8 |
| 20260902130920 | 64 | 56 | 1.7 | 2.6 | 0.00 | 0.00 | 0.00 | 83 | 1015.9 |
| 20260902130400 | 64 | 57 | 0.9 | 2.6 | 0.00 | 0.00 | 0.00 | 83 | 1015.9 |
| 20260902125840 | 64 | 56 | 0.9 | 1.7 | 0.00 | 0.00 | 0.00 | 83 | 1015.9 |
| 20260902125320 | 64 | 57 | 0.9 | 1.7 | 0.00 | 0.00 | 0.00 | 83 | 1016.0 |
| 20260902124800 | 64 | 58 | 0.9 | 2.6 | 0.00 | 0.00 | 0.00 | 82 | 1016.0 |
| 20260902124240 | 64 | 104 | 0.9 | 2.6 | 0.00 | 0.00 | 0.00 | 83 | 1016.0 |
| 20260902123720 | 64 | 155 | 0.9 | 1.7 | 0.00 | 0.00 | 0.00 | 83 | 1016.0 |
| 20260902123200 | 64 | 155 | 0.9 | 1.7 | 0.00 | 0.00 | 0.00 | 83 | 1016.0 |
| 20260902122640 | 64 | 155 | 0.9 | 1.7 | 0.00 | 0.00 | 0.00 | 83 | 1016.1 |
| 20260902122120 | 64 | 0.0 | 0.0 | 0.00 | 0.00 | 0.00 | 84 | 1016.1 | |
| 20260902121600 | 64 | 155 | 0.0 | 1.7 | 0.00 | 0.00 | 0.00 | 84 | 1016.1 |
| 20260902121040 | 64 | 0.0 | 0.9 | 0.00 | 0.00 | 0.00 | 84 | 1016.0 | |
| 20260902120520 | 64 | 0.0 | 0.0 | 0.00 | 0.00 | 0.00 | 83 | 1016.1 | |
| 20260902120000 | 64 | 0.0 | 1.7 | 0.00 | 0.00 | 0.00 | 83 | 1016.1 | |
| 20260902115440 | 64 | 0.0 | 0.9 | 0.00 | 0.00 | 0.00 | 82 | 1016.1 | |
| 20260902114920 | 64 | 0.0 | 0.0 | 0.00 | 0.00 | 0.00 | 82 | 1016.1 | |
| 20260902114400 | 65 | 0.0 | 0.9 | 0.00 | 0.00 | 0.00 | 81 | 1016.1 | |
| 20260902113840 | 65 | 156 | 0.0 | 1.7 | 0.00 | 0.00 | 0.00 | 81 | 1016.1 |
| 20260902113320 | 65 | 0.0 | 0.9 | 0.00 | 0.00 | 0.00 | 81 | 1016.1 | |
| 20260902112800 | 65 | 155 | 0.0 | 1.7 | 0.00 | 0.00 | 0.00 | 81 | 1016.1 |
| 20260902112240 | 65 | 156 | 0.0 | 0.9 | 0.00 | 0.00 | 0.00 | 82 | 1016.1 |
| 20260902111720 | 64 | 0.0 | 0.0 | 0.00 | 0.00 | 0.00 | 83 | 1016.1 | |
| 20260902111159 | 64 | 0.0 | 0.0 | 0.00 | 0.00 | 0.00 | 83 | 1016.2 | |
| 20260902110640 | 65 | 0.0 | 0.0 | 0.00 | 0.00 | 0.00 | 82 | 1016.2 | |
| 20260902110120 | 65 | 156 | 0.0 | 1.7 | 0.00 | 0.00 | 0.00 | 82 | 1016.1 |
| 20260902105559 | 65 | 155 | 0.9 | 1.7 | 0.00 | 0.00 | 0.00 | 82 | 1016.1 |
| 20260902105039 | 65 | 155 | 0.9 | 1.7 | 0.00 | 0.00 | 0.00 | 83 | 1016.1 |
| 20260902104520 | 65 | 155 | 0.9 | 1.7 | 0.00 | 0.00 | 0.00 | 84 | 1016.1 |
| 20260902104000 | 64 | 0.0 | 0.9 | 0.00 | 0.00 | 0.00 | 83 | 1016.1 | |
| 20260902103440 | 65 | 0.0 | 0.9 | 0.00 | 0.00 | 0.00 | 83 | 1016.1 | |
| 20260902102920 | 65 | 155 | 0.9 | 1.7 | 0.00 | 0.00 | 0.00 | 83 | 1016.2 |
| 20260902102400 | 65 | 155 | 0.0 | 1.7 | 0.00 | 0.00 | 0.00 | 83 | 1016.1 |
| 20260902101840 | 64 | 156 | 0.0 | 1.7 | 0.00 | 0.00 | 0.00 | 85 | 1016.1 |
| 20260902101320 | 64 | 0.0 | 0.9 | 0.00 | 0.00 | 0.00 | 85 | 1016.1 | |
| 20260902100800 | 64 | 0.0 | 0.0 | 0.00 | 0.00 | 0.00 | 85 | 1016.1 | |
| 20260902100239 | 64 | 0.0 | 0.9 | 0.00 | 0.00 | 0.00 | 84 | 1016.2 | |
| 20260902095720 | 65 | 0.0 | 0.0 | 0.00 | 0.00 | 0.00 | 84 | 1016.2 | |
| 20260902095200 | 65 | 0.0 | 0.0 | 0.00 | 0.00 | 0.00 | 83 | 1016.2 | |
| 20260902094639 | 65 | 154 | 0.0 | 1.7 | 0.00 | 0.00 | 0.00 | 83 | 1016.2 |
| 20260902094120 | 65 | 0.0 | 0.9 | 0.00 | 0.00 | 0.00 | 85 | 1016.2 | |
| 20260902093600 | 65 | 0.0 | 0.0 | 0.00 | 0.00 | 0.00 | 82 | 1016.2 | |
| 20260902093040 | 65 | 0.0 | 0.0 | 0.00 | 0.00 | 0.00 | 83 | 1016.3 | |
| 20260902092520 | 65 | 0.0 | 0.0 | 0.00 | 0.00 | 0.00 | 82 | 1016.2 | |
| 20260902092000 | 65 | 0.0 | 0.9 | 0.00 | 0.00 | 0.00 | 82 | 1016.2 | |
| 20260902091440 | 65 | 0.0 | 0.9 | 0.00 | 0.00 | 0.00 | 82 | 1016.2 | |
| 20260902090920 | 65 | 0.0 | 0.9 | 0.00 | 0.00 | 0.00 | 82 | 1016.2 | |
| 20260902090400 | 65 | 0.0 | 0.0 | 0.00 | 0.00 | 0.00 | 82 | 1016.2 | |
| 20260902085839 | 65 | 0.0 | 1.7 | 0.00 | 0.00 | 0.00 | 81 | 1016.2 | |
| 20260902085320 | 65 | 155 | 0.9 | 1.7 | 0.00 | 0.00 | 0.00 | 82 | 1016.2 |
| 20260902084800 | 65 | 0.0 | 0.9 | 0.00 | 0.00 | 0.00 | 83 | 1016.2 | |
| 20260902084240 | 65 | 0.0 | 0.0 | 0.00 | 0.00 | 0.00 | 83 | 1016.3 | |
| 20260902083719 | 65 | 0.0 | 0.9 | 0.00 | 0.00 | 0.00 | 82 | 1016.3 | |
| 20260902083200 | 65 | 155 | 0.0 | 1.7 | 0.00 | 0.00 | 0.00 | 83 | 1016.3 |
| 20260902082639 | 65 | 0.0 | 0.0 | 0.00 | 0.00 | 0.00 | 84 | 1016.3 | |
| 20260902082119 | 65 | 0.0 | 0.0 | 0.00 | 0.00 | 0.00 | 84 | 1016.3 | |
| 20260902081600 | 65 | 0.0 | 0.0 | 0.00 | 0.00 | 0.00 | 82 | 1016.3 | |
| 20260902081040 | 65 | 0.0 | 0.0 | 0.00 | 0.00 | 0.00 | 81 | 1016.3 | |
| 20260902080520 | 66 | 0.0 | 0.9 | 0.00 | 0.00 | 0.00 | 83 | 1016.2 | |
| 20260902080000 | 65 | 0.0 | 0.0 | 0.00 | 0.00 | 0.00 | 83 | 1016.2 | |
| 20260902075440 | 65 | 0.0 | 0.0 | 0.00 | 0.00 | 0.00 | 82 | 1016.2 | |
| 20260902074920 | 66 | 0.0 | 0.0 | 0.00 | 0.00 | 0.00 | 80 | 1016.2 | |
| 20260902074400 | 66 | 0.0 | 0.9 | 0.00 | 0.00 | 0.00 | 80 | 1016.2 | |
| 20260902073840 | 66 | 0.0 | 0.0 | 0.00 | 0.00 | 0.00 | 82 | 1016.2 | |
| 20260902073320 | 65 | 0.0 | 0.0 | 0.00 | 0.00 | 0.00 | 83 | 1016.2 | |
| 20260902072759 | 65 | 0.0 | 0.0 | 0.00 | 0.00 | 0.00 | 82 | 1016.2 | |
| 20260902072240 | 66 | 0.0 | 0.0 | 0.00 | 0.00 | 0.00 | 82 | 1016.1 | |
| 20260902071720 | 66 | 0.0 | 0.0 | 0.00 | 0.00 | 0.00 | 82 | 1016.0 | |
| 20260902071200 | 66 | 0.0 | 0.0 | 0.00 | 0.00 | 0.00 | 82 | 1015.9 | |
| 20260902070640 | 66 | 0.0 | 0.0 | 0.00 | 0.00 | 0.00 | 82 | 1015.9 | |
| 20260902070119 | 66 | 0.0 | 0.0 | 0.00 | 0.00 | 0.00 | 80 | 1015.8 | |
| 20260902065600 | 66 | 0.0 | 0.0 | 0.00 | 0.00 | 0.00 | 79 | 1015.7 | |
| 20260902065040 | 66 | 0.0 | 0.0 | 0.00 | 0.00 | 0.00 | 79 | 1015.7 | |
| 20260902064520 | 66 | 0.0 | 0.9 | 0.00 | 0.00 | 0.00 | 78 | 1015.7 | |
| 20260902064000 | 66 | 155 | 0.0 | 0.9 | 0.00 | 0.00 | 0.00 | 79 | 1015.7 |
| 20260902063439 | 67 | 0.0 | 0.0 | 0.00 | 0.00 | 0.00 | 78 | 1015.8 | |
| 20260902062919 | 67 | 0.0 | 0.9 | 0.00 | 0.00 | 0.00 | 77 | 1015.8 | |
| 20260902062400 | 67 | 155 | 0.0 | 1.7 | 0.00 | 0.00 | 0.00 | 77 | 1015.8 |
| 20260902061839 | 67 | 0.0 | 0.9 | 0.00 | 0.00 | 0.00 | 79 | 1015.7 | |
| 20260902061320 | 67 | 0.0 | 0.9 | 0.00 | 0.00 | 0.00 | 77 | 1015.7 | |
| 20260902060800 | 67 | 0.0 | 0.0 | 0.00 | 0.00 | 0.00 | 76 | 1015.7 | |
| 20260902060240 | 67 | 0.0 | 0.9 | 0.00 | 0.00 | 0.00 | 75 | 1015.6 | |
| 20260902055720 | 67 | 156 | 0.0 | 0.9 | 0.00 | 0.00 | 0.00 | 75 | 1015.6 |
| 20260902055200 | 67 | 0.0 | 0.9 | 0.00 | 0.00 | 0.00 | 75 | 1015.5 | |
| 20260902054639 | 67 | 155 | 0.0 | 0.9 | 0.00 | 0.00 | 0.00 | 76 | 1015.5 |
| 20260902054120 | 67 | 0.0 | 0.0 | 0.00 | 0.00 | 0.00 | 76 | 1015.6 | |
| 20260902053600 | 67 | 0.0 | 0.9 | 0.00 | 0.00 | 0.00 | 76 | 1015.6 | |
| 20260902053040 | 67 | 156 | 0.0 | 0.9 | 0.00 | 0.00 | 0.00 | 78 | 1015.6 |
| 20260902052520 | 67 | 0.0 | 0.0 | 0.00 | 0.00 | 0.00 | 75 | 1015.5 | |
| 20260902052000 | 67 | 0.0 | 0.0 | 0.00 | 0.00 | 0.00 | 75 | 1015.5 | |
| 20260902051440 | 67 | 0.0 | 0.9 | 0.00 | 0.00 | 0.00 | 75 | 1015.5 | |
| 20260902050920 | 67 | 0.0 | 0.9 | 0.00 | 0.00 | 0.00 | 75 | 1015.6 | |
| 20260902050359 | 67 | 0.0 | 0.9 | 0.00 | 0.00 | 0.00 | 75 | 1015.6 | |
| 20260902045840 | 68 | 0.0 | 0.9 | 0.00 | 0.00 | 0.00 | 75 | 1015.5 | |
| 20260902045319 | 68 | 0.0 | 0.9 | 0.00 | 0.00 | 0.00 | 74 | 1015.5 | |
| 20260902044759 | 68 | 0.0 | 0.9 | 0.00 | 0.00 | 0.00 | 74 | 1015.4 | |
| 20260902044239 | 68 | 0.0 | 0.9 | 0.00 | 0.00 | 0.00 | 75 | 1015.4 | |
| 20260902043720 | 68 | 0.0 | 0.9 | 0.00 | 0.00 | 0.00 | 74 | 1015.3 | |
| 20260902043200 | 68 | 156 | 0.0 | 1.7 | 0.00 | 0.00 | 0.00 | 76 | 1015.3 |
| 20260902042640 | 68 | 0.0 | 0.0 | 0.00 | 0.00 | 0.00 | 76 | 1015.2 | |
| 20260902042120 | 68 | 0.0 | 0.0 | 0.00 | 0.00 | 0.00 | 75 | 1015.2 | |
| 20260902041559 | 68 | 0.0 | 0.9 | 0.00 | 0.00 | 0.00 | 74 | 1015.1 | |
| 20260902041040 | 68 | 244 | 0.0 | 0.9 | 0.00 | 0.00 | 0.00 | 74 | 1015.0 |
| 20260902040519 | 68 | 0.0 | 1.7 | 0.00 | 0.00 | 0.00 | 73 | 1014.9 | |
| 20260902040000 | 68 | 0.0 | 1.7 | 0.00 | 0.00 | 0.00 | 72 | 1014.8 | |
| 20260902035439 | 68 | 243 | 0.9 | 1.7 | 0.00 | 0.00 | 0.00 | 71 | 1014.7 |
| 20260902034920 | 68 | 226 | 0.9 | 1.7 | 0.00 | 0.00 | 0.00 | 71 | 1014.6 |
| 20260902034400 | 69 | 253 | 1.7 | 2.6 | 0.00 | 0.00 | 0.00 | 71 | 1014.6 |
| 20260902033840 | 69 | 247 | 1.7 | 2.6 | 0.00 | 0.00 | 0.00 | 71 | 1014.5 |
| 20260902033320 | 69 | 242 | 0.9 | 2.6 | 0.00 | 0.00 | 0.00 | 70 | 1014.4 |
| 20260902032800 | 69 | 248 | 1.7 | 4.3 | 0.00 | 0.00 | 0.00 | 70 | 1014.4 |
| 20260902032240 | 69 | 245 | 1.7 | 4.3 | 0.00 | 0.00 | 0.00 | 70 | 1014.5 |
| 20260902031720 | 69 | 233 | 2.6 | 5.2 | 0.00 | 0.00 | 0.00 | 70 | 1014.5 |
| 20260902031200 | 69 | 234 | 1.7 | 4.3 | 0.00 | 0.00 | 0.00 | 70 | 1014.5 |
| 20260902030640 | 69 | 240 | 1.7 | 2.6 | 0.00 | 0.00 | 0.00 | 70 | 1014.4 |
| 20260902030545 | 69 | 240 | 1.7 | 2.6 | 0.00 | 0.00 | 0.00 | 70 | 1014.4 |
| 20260902025600 | 69 | 252 | 2.6 | 4.3 | 0.00 | 0.00 | 0.00 | 69 | 1014.3 |
| 20260902025040 | 69 | 246 | 2.6 | 5.2 | 0.00 | 0.00 | 0.00 | 68 | 1014.3 |
| 20260902024520 | 69 | 260 | 2.6 | 5.2 | 0.00 | 0.00 | 0.00 | 69 | 1014.3 |
| 20260902024000 | 69 | 232 | 3.5 | 5.2 | 0.00 | 0.00 | 0.00 | 69 | 1014.2 |
| 20260902023439 | 70 | 241 | 2.6 | 6.1 | 0.00 | 0.00 | 0.00 | 69 | 1014.2 |
| 20260902022919 | 70 | 254 | 3.5 | 7.0 | 0.00 | 0.00 | 0.00 | 69 | 1014.1 |
| 20260902022359 | 70 | 248 | 3.5 | 6.1 | 0.00 | 0.00 | 0.00 | 69 | 1014.1 |
| 20260902021840 | 70 | 244 | 2.6 | 6.1 | 0.00 | 0.00 | 0.00 | 69 | 1014.1 |
| 20260902021319 | 70 | 244 | 3.5 | 6.1 | 0.00 | 0.00 | 0.00 | 69 | 1014.0 |
| 20260902020759 | 71 | 248 | 2.6 | 6.1 | 0.00 | 0.00 | 0.00 | 69 | 1014.0 |
| 20260902020239 | 71 | 230 | 1.7 | 6.1 | 0.00 | 0.00 | 0.00 | 68 | 1014.1 |
| 20260902015719 | 72 | 245 | 2.6 | 6.1 | 0.00 | 0.00 | 0.00 | 67 | 1014.1 |
| 20260902015200 | 74 | 237 | 3.5 | 8.7 | 0.00 | 0.00 | 0.00 | 66 | 1014.1 |
| 20260902014640 | 74 | 231 | 3.5 | 7.0 | 0.00 | 0.00 | 0.00 | 65 | 1014.1 |
| 20260902014119 | 75 | 242 | 3.5 | 7.0 | 0.00 | 0.00 | 0.00 | 65 | 1014.1 |
| 20260902013601 | 76 | 247 | 3.5 | 7.8 | 0.00 | 0.00 | 0.00 | 63 | 1014.0 |
| 20260902013040 | 76 | 242 | 3.5 | 6.1 | 0.00 | 0.00 | 0.00 | 63 | 1014.0 |
| 20260902012520 | 75 | 245 | 4.3 | 7.0 | 0.00 | 0.00 | 0.00 | 64 | 1014.1 |
| 20260902011959 | 77 | 228 | 3.5 | 6.1 | 0.00 | 0.00 | 0.00 | 61 | 1014.1 |
| 20260902011439 | 78 | 235 | 2.6 | 6.1 | 0.00 | 0.00 | 0.00 | 59 | 1014.1 |
| 20260902010920 | 77 | 239 | 2.6 | 7.0 | 0.00 | 0.00 | 0.00 | 60 | 1014.2 |
| 20260902010359 | 77 | 241 | 3.5 | 8.7 | 0.00 | 0.00 | 0.00 | 59 | 1014.2 |
| 20260902005840 | 77 | 246 | 3.5 | 6.1 | 0.00 | 0.00 | 0.00 | 57 | 1014.2 |
| 20260902005319 | 77 | 250 | 3.5 | 8.7 | 0.00 | 0.00 | 0.00 | 57 | 1014.3 |
| 20260902004800 | 77 | 258 | 3.5 | 8.7 | 0.00 | 0.00 | 0.00 | 59 | 1014.3 |
| 20260902004239 | 77 | 248 | 4.3 | 8.7 | 0.00 | 0.00 | 0.00 | 58 | 1014.3 |
| 20260902003720 | 77 | 246 | 4.3 | 8.7 | 0.00 | 0.00 | 0.00 | 56 | 1014.4 |
| 20260902003159 | 77 | 267 | 5.2 | 8.7 | 0.00 | 0.00 | 0.00 | 58 | 1014.3 |
| 20260902002640 | 78 | 249 | 3.5 | 9.6 | 0.00 | 0.00 | 0.00 | 55 | 1014.3 |
| 20260902002120 | 79 | 238 | 3.5 | 7.0 | 0.00 | 0.00 | 0.00 | 54 | 1014.3 |
| 20260902001600 | 79 | 232 | 2.6 | 6.1 | 0.00 | 0.00 | 0.00 | 52 | 1014.3 |
| 20260902001040 | 78 | 237 | 3.5 | 7.0 | 0.00 | 0.00 | 0.00 | 53 | 1014.4 |
| 20260902000519 | 78 | 251 | 4.3 | 7.0 | 0.00 | 0.00 | 0.00 | 52 | 1014.3 |
| 20260902000000 | 78 | 234 | 3.5 | 6.1 | 0.00 | 0.00 | 0.00 | 53 | 1014.4 |
| 20260901235440 | 77 | 243 | 5.2 | 7.0 | 0.00 | 0.00 | 0.00 | 55 | 1014.4 |
| 20260901234910 | 77 | 259 | 4.3 | 7.0 | 0.00 | 0.00 | 0.00 | 55 | 1014.4 |
| 20260901234351 | 78 | 242 | 4.3 | 7.0 | 0.00 | 0.00 | 0.00 | 53 | 1014.4 |
| 20260901233831 | 78 | 228 | 3.5 | 7.8 | 0.00 | 0.00 | 0.00 | 50 | 1014.4 |
| 20260901233310 | 77 | 237 | 5.2 | 8.7 | 0.00 | 0.00 | 0.00 | 51 | 1014.5 |
| 20260901232750 | 78 | 251 | 4.3 | 12.2 | 0.00 | 0.00 | 0.00 | 51 | 1014.5 |
| 20260901232231 | 78 | 230 | 4.3 | 9.6 | 0.00 | 0.00 | 0.00 | 48 | 1014.5 |
| 20260901231710 | 78 | 253 | 4.3 | 9.6 | 0.00 | 0.00 | 0.00 | 51 | 1014.5 |
| 20260901231150 | 78 | 243 | 4.3 | 10.4 | 0.00 | 0.00 | 0.00 | 49 | 1014.6 |
| 20260901230631 | 79 | 249 | 4.3 | 7.0 | 0.00 | 0.00 | 0.00 | 50 | 1014.6 |
| 20260901230110 | 79 | 264 | 7.0 | 29.5 | 0.00 | 0.00 | 0.00 | 52 | 1014.6 |
| 20260901225550 | 80 | 227 | 4.3 | 8.7 | 0.00 | 0.00 | 0.00 | 49 | 1014.6 |
| 20260901225031 | 79 | 231 | 5.2 | 12.2 | 0.00 | 0.00 | 0.00 | 48 | 1014.6 |
| 20260901224510 | 79 | 252 | 5.2 | 8.7 | 0.00 | 0.00 | 0.00 | 50 | 1014.7 |
| 20260901223950 | 79 | 257 | 6.1 | 9.6 | 0.00 | 0.00 | 0.00 | 53 | 1014.7 |
| 20260901223431 | 79 | 230 | 3.5 | 8.7 | 0.00 | 0.00 | 0.00 | 52 | 1014.7 |
| 20260901222910 | 79 | 232 | 5.2 | 11.3 | 0.00 | 0.00 | 0.00 | 53 | 1014.7 |
| 20260901222236 | 79 | 231 | 4.3 | 8.7 | 0.00 | 0.00 | 0.00 | 52 | 1014.8 |
| 20260901221716 | 79 | 249 | 5.2 | 11.3 | 0.00 | 0.00 | 0.00 | 53 | 1014.8 |
| 20260901221156 | 80 | 238 | 4.3 | 7.8 | 0.00 | 0.00 | 0.00 | 52 | 1014.8 |
| 20260901220324 | 79 | 241 | 5.2 | 9.6 | 0.00 | 0.00 | 0.00 | 54 | 1014.9 |
| 20260901215804 | 79 | 233 | 5.2 | 9.6 | 0.00 | 0.00 | 0.00 | 54 | 1014.9 |
| 20260901215244 | 80 | 238 | 4.3 | 8.7 | 0.00 | 0.00 | 0.00 | 52 | 1014.9 |
| 20260901214724 | 81 | 217 | 2.6 | 6.1 | 0.00 | 0.00 | 0.00 | 49 | 1015.0 |
| 20260901214204 | 80 | 233 | 3.5 | 9.6 | 0.00 | 0.00 | 0.00 | 51 | 1015.0 |
| 20260901213644 | 81 | 246 | 3.5 | 7.0 | 0.00 | 0.00 | 0.00 | 50 | 1015.0 |
| 20260901213124 | 80 | 236 | 4.3 | 8.7 | 0.00 | 0.00 | 0.00 | 52 | 1015.0 |
| 20260901212604 | 79 | 228 | 5.2 | 9.6 | 0.00 | 0.00 | 0.00 | 52 | 1015.1 |
| 20260901212044 | 80 | 238 | 4.3 | 7.0 | 0.00 | 0.00 | 0.00 | 52 | 1015.1 |
| 20260901211524 | 80 | 240 | 5.2 | 8.7 | 0.00 | 0.00 | 0.00 | 52 | 1015.2 |
| 20260901211004 | 80 | 241 | 4.3 | 12.2 | 0.00 | 0.00 | 0.00 | 51 | 1015.2 |
| 20260901210444 | 80 | 240 | 3.5 | 8.7 | 0.00 | 0.00 | 0.00 | 52 | 1015.2 |
| 20260901205924 | 79 | 228 | 4.3 | 9.6 | 0.00 | 0.00 | 0.00 | 53 | 1015.3 |
| 20260901205404 | 79 | 253 | 3.5 | 11.3 | 0.00 | 0.00 | 0.00 | 55 | 1015.3 |
| 20260901204844 | 79 | 246 | 5.2 | 9.6 | 0.00 | 0.00 | 0.00 | 54 | 1015.4 |
| 20260901204324 | 80 | 248 | 3.5 | 9.6 | 0.00 | 0.00 | 0.00 | 51 | 1015.4 |
| 20260901203804 | 80 | 238 | 3.5 | 7.8 | 0.00 | 0.00 | 0.00 | 53 | 1015.4 |
| 20260901203244 | 80 | 249 | 4.3 | 8.7 | 0.00 | 0.00 | 0.00 | 53 | 1015.5 |
| 20260901202724 | 81 | 228 | 3.5 | 8.7 | 0.00 | 0.00 | 0.00 | 51 | 1015.5 |
| 20260901202204 | 80 | 251 | 3.5 | 8.7 | 0.00 | 0.00 | 0.00 | 54 | 1015.5 |
| 20260901201644 | 80 | 242 | 5.2 | 8.7 | 0.00 | 0.00 | 0.00 | 54 | 1015.6 |
| 20260901201124 | 81 | 235 | 3.5 | 7.0 | 0.00 | 0.00 | 0.00 | 52 | 1015.7 |
| 20260901200604 | 79 | 256 | 5.2 | 8.7 | 0.00 | 0.00 | 0.00 | 55 | 1015.8 |
| 20260901200044 | 80 | 245 | 4.3 | 7.0 | 0.00 | 0.00 | 0.00 | 53 | 1015.8 |
| 20260901195524 | 80 | 248 | 3.5 | 7.0 | 0.00 | 0.00 | 0.00 | 54 | 1015.8 |
| 20260901195004 | 79 | 246 | 5.2 | 9.6 | 0.00 | 0.00 | 0.00 | 56 | 1015.9 |
| 20260901194444 | 81 | 240 | 3.5 | 8.7 | 0.00 | 0.00 | 0.00 | 52 | 1015.8 |
| 20260901193439 | 81 | 235 | 3.5 | 7.8 | 0.00 | 0.00 | 0.00 | 52 | 1015.9 |
| 20260901192919 | 82 | 222 | 2.6 | 6.1 | 0.00 | 0.00 | 0.00 | 50 | 1015.9 |
| 20260901192359 | 83 | 248 | 1.7 | 5.2 | 0.00 | 0.00 | 0.00 | 49 | 1016.0 |
| 20260901191839 | 82 | 238 | 1.7 | 5.2 | 0.00 | 0.00 | 0.00 | 51 | 1016.0 |
| 20260901191319 | 83 | 268 | 2.6 | 7.0 | 0.00 | 0.00 | 0.00 | 49 | 1016.1 |
| 20260901190759 | 83 | 226 | 0.9 | 2.6 | 0.00 | 0.00 | 0.00 | 47 | 1016.0 |
| 20260901190239 | 82 | 217 | 1.7 | 5.2 | 0.00 | 0.00 | 0.00 | 48 | 1016.0 |
| 20260901185719 | 82 | 246 | 0.9 | 6.1 | 0.00 | 0.00 | 0.00 | 49 | 1016.1 |
| 20260901185159 | 83 | 162 | 1.7 | 6.1 | 0.00 | 0.00 | 0.00 | 49 | 1016.1 |
| 20260901184639 | 82 | 191 | 1.7 | 3.5 | 0.00 | 0.00 | 0.00 | 48 | 1016.1 |
| 20260901184119 | 81 | 253 | 0.9 | 3.5 | 0.00 | 0.00 | 0.00 | 51 | 1016.2 |
| 20260901183559 | 81 | 256 | 1.7 | 4.3 | 0.00 | 0.00 | 0.00 | 52 | 1016.2 |
| 20260901183039 | 82 | 1.7 | 5.2 | 0.00 | 0.00 | 0.00 | 49 | 1016.1 | |
| 20260901182519 | 80 | 13 | 1.7 | 3.5 | 0.00 | 0.00 | 0.00 | 53 | 1016.2 |
| 20260901181959 | 80 | 243 | 3.5 | 6.1 | 0.00 | 0.00 | 0.00 | 53 | 1016.2 |
| 20260901181439 | 81 | 230 | 1.7 | 5.2 | 0.00 | 0.00 | 0.00 | 49 | 1016.2 |
| 20260901180919 | 80 | 259 | 0.9 | 2.6 | 0.00 | 0.00 | 0.00 | 51 | 1016.2 |
| 20260901180359 | 80 | 255 | 1.7 | 6.1 | 0.00 | 0.00 | 0.00 | 52 | 1016.2 |
| 20260901175839 | 79 | 257 | 0.9 | 3.5 | 0.00 | 0.00 | 0.00 | 50 | 1016.2 |
| 20260901175319 | 81 | 202 | 0.9 | 3.5 | 0.00 | 0.00 | 0.00 | 49 | 1016.2 |
| 20260901174759 | 80 | 223 | 0.9 | 3.5 | 0.00 | 0.00 | 0.00 | 49 | 1016.2 |
| 20260901174239 | 79 | 198 | 0.9 | 2.6 | 0.00 | 0.00 | 0.00 | 55 | 1016.3 |
| 20260901173719 | 78 | 244 | 1.7 | 5.2 | 0.00 | 0.00 | 0.00 | 54 | 1016.3 |
| 20260901173159 | 78 | 295 | 0.0 | 2.6 | 0.00 | 0.00 | 0.00 | 52 | 1016.3 |
| 20260901172639 | 78 | 225 | 1.7 | 5.2 | 0.00 | 0.00 | 0.00 | 55 | 1016.3 |
| 20260901172119 | 78 | 130 | 1.7 | 6.1 | 0.00 | 0.00 | 0.00 | 56 | 1016.2 |
| 20260901171559 | 77 | 230 | 1.7 | 5.2 | 0.00 | 0.00 | 0.00 | 52 | 1016.2 |
| 20260901171039 | 78 | 67 | 0.9 | 2.6 | 0.00 | 0.00 | 0.00 | 55 | 1016.1 |
| 20260901170519 | 77 | 148 | 0.9 | 2.6 | 0.00 | 0.00 | 0.00 | 57 | 1016.2 |